Tracking 19854 objects as of 23-Sep-2019
HD Live streaming from Space Station
objects crossing your sky now

THORAD DELTA 1 DEB

Track THORAD DELTA 1 DEB now!
10-day predictions


NORAD ID: 8561
Int'l Code: 1974-089CY
Perigee: 1,350.6 km
Apogee: 1,464.3 km
Inclination: 101.7 °
Period: 113.8 minutes
Semi major axis: 7778 km
RCS: 0.0788 m2 (small)
Launch date: November 15, 1974
Source: United States (US)
Launch site: AIR FORCE WESTERN TEST RANGE (AFWTR)

Note: This is SATELLITE DEBRIS
aabbcc
Your satellite tracking list
Your tracking list is empty




NASA's NSSDC Master Catalog

Two Line Element Set (TLE):
1  8561U 74089CY  19265.51518390  .00000155  00000-0  10617-2 0  9991
2  8561 101.6666 267.9243 0073112  25.9933 125.1302 12.65497625 64164
Source of the keplerian elements: AFSPC